This is the latest recevied weather packets stored in our database for station/object KB1ZFK. If no packets are shown the sender has not sent any weather packets the latest 10 day(s).
| Time | Temp. | Humidity | Pressure | Rain* | Wind** | Luminosity | Snow |
|---|---|---|---|---|---|---|---|
| 1777302327 | 18.33° C | 42% | 1025 hPa | 0 mm | - | 740 W/m² | - |
| 1777302024 | 18.33° C | 40% | 1025.3 hPa | 0 mm | - | 792 W/m² | - |
| 1777301722 | 18.33° C | 41% | 1025.2 hPa | 0 mm | - | 800 W/m² | - |
| 1777301418 | 17.22° C | 40% | 1025.4 hPa | 0 mm | - | 795 W/m² | - |
| 1777301115 | 17.78° C | 40% | 1025 hPa | 0 mm | - | 783 W/m² | - |
| 1777300812 | 18.33° C | 44% | 1025.2 hPa | 0 mm | - | 787 W/m² | - |
| 1777300511 | 17.78° C | 42% | 1025 hPa | 0 mm | - | 763 W/m² | - |
| 1777300208 | 16.67° C | 43% | 1025 hPa | 0 mm | - | 747 W/m² | - |
| 1777299904 | 16.67° C | 45% | 1025.3 hPa | 0 mm | - | 741 W/m² | - |
| 1777299601 | 17.22° C | 43% | 1025 hPa | 0 mm | - | 715 W/m² | - |
| 1777299299 | 17.22° C | 43% | 1025.2 hPa | 0 mm | - | 691 W/m² | - |
| 1777298996 | 16.67° C | 44% | 1025 hPa | 0 mm | - | 639 W/m² | - |
| 1777298694 | 16.67° C | 44% | 1025.4 hPa | 0 mm | - | 618 W/m² | - |
| 1777298389 | 16.67° C | 43% | 1025.2 hPa | 0 mm | - | 606 W/m² | - |
| 1777298086 | 16.67° C | 43% | 1025.3 hPa | 0 mm | - | 582 W/m² | - |
| 1777297785 | 16.11° C | 44% | 1025.1 hPa | 0 mm | - | 555 W/m² | - |
| 1777297484 | 16.11° C | 44% | 1025 hPa | 0 mm | - | 534 W/m² | - |
| 1777297181 | 16.67° C | 44% | 1025 hPa | 0 mm | - | 544 W/m² | - |
| 1777296878 | 16.11° C | 43% | 1024.9 hPa | 0 mm | - | 534 W/m² | - |
| 1777296574 | 15.56° C | 46% | 1024.8 hPa | 0 mm | - | 501 W/m² | - |
| 1777296239 | 15.56° C | 45% | 1025.1 hPa | 0 mm | - | 495 W/m² | - |
| 1777295935 | 15.56° C | 46% | 1024.9 hPa | 0 mm | - | 478 W/m² | - |
| 1777295633 | 15.56° C | 46% | 1024.8 hPa | 0 mm | - | 445 W/m² | - |
| 1777295330 | 15° C | 48% | 1024.9 hPa | 0 mm | - | 414 W/m² | - |
| 1777295028 | 15° C | 47% | 1024.9 hPa | 0 mm | - | 398 W/m² | - |
* Rain latest hour (hover to see other rain measurements)
** Current wind speed in m/s (hover to see current wind gust speed)